Powrót do katalogu

CZ-4 DEB

AktywnySSO
NORAD 37610·DEBRIS·🇨🇳 China

Wystrzelony Sep 3, 1990 z Taiyuan Satellite Launch Center

Loading…

Następne Przeloty (najbliższe 24 godziny)

TLE

ŚwieżeSource: Space-Track

Epoka: Sep 11, 2026, 15:43 UTC

1 37610U 90081CW  26254.65530265  .00000206  00000-0  22671-3 0  9995
2 37610  99.0977 147.2491 0150874 346.9752  12.7523 13.78184598719437

Śledź CZ-4 DEB w czasie rzeczywistym z AllMySat

Download on the App Store